Station WKXA1 - Safe Harbor Met Station, Weeks Bay Reserve, AL Image indicating link to RSS feed of recent meteorological observations for station WKXA1


Conditions at WKXA1 as of
(12:00 pm CDT)
1700 GMT on 09/06/2026:
     

Click on the graph icon in the table below to see a time series plot of the last five days of that observation.

5-day plot - Wind Direction Wind Direction (WDIR): W ( 270 deg true )
5-day plot - Wind Speed Wind Speed (WSPD): 1.0 kts
5-day plot - Atmospheric Pressure Atmospheric Pressure (PRES):29.91 in
5-day plot - Pressure Tendency Pressure Tendency (PTDY):+0.00 in ( Steady )
5-day plot - Air Temperature Air Temperature (ATMP): 89.4 °F
5-day plot - Dew Point Dew Point (DEWP): 75.6 °F
5-day plot - Heat Index Heat Index (HEAT):100.4 °F
5-day plot -  Wind Speed, Wind Gust and Atmospheric Pressure Combined plot of Wind Speed, Gust, and Air Pressure
Previous observations
TIME
(CDT)
5-day plot - Wind Direction
WDIR
 
5-day plot - Wind Speed
WSPD
kts
5-day plot - Wind Gust
GST
kts
5-day plot - Wave Height
WVHT
ft
5-day plot - Dominant Wave Period
DPD
sec
5-day plot - Average Wave Period
APD
sec
5-day plot - Mean Wave Direction
MWD
 
5-day plot - Atmospheric Pressure
PRES
in
5-day plot - Pressure Tendency
PTDY
in
5-day plot - Air Temperature
ATMP
°F
5-day plot - Water Temperature
WTMP
°F
5-day plot - Dew Point
DEWP
°F
5-day plot - Salinity
SAL
psu
5-day plot - Visibility
VIS
nmi
5-day plot - Tide (above MLLW)
TIDE
ft
2026-09-06 11:45 amSSW 1.9-----29.91- 89.2- 75.4---
2026-09-06 11:30 am SW 1.0-----29.91- 88.7- 75.4---
2026-09-06 11:15 amWNW 1.0-----29.91- 87.4- 75.4---
2026-09-06 11:00 am SW 1.0-----29.91+0.00 88.2- 75.2---
2026-09-06 10:45 am S 1.9-----29.91- 87.8- 76.6---
2026-09-06 10:30 am S 1.0-----29.91- 87.4- 75.9---
2026-09-06 10:15 amSSW 1.0-----29.91- 88.0- 75.9---
2026-09-06 10:00 am W 1.0-----29.91+0.00 87.3- 76.1---
2026-09-06 09:45 am- 0.0-----29.91- 87.1- 76.5---
2026-09-06 09:30 am N 1.0-----29.91- 85.8- 76.8---
2026-09-06 09:15 amNNW 1.9-----29.91- 84.9- 76.6---
2026-09-06 09:00 am N 1.0-----29.91+0.03 84.0- 78.1---
2026-09-06 08:45 am N 1.9-----29.91- 82.8- 78.6---
2026-09-06 08:30 am NE 1.0-----29.91- 81.1- 78.3---
2026-09-06 08:15 am- 0.0-----29.91- 80.1- 77.9---
2026-09-06 08:00 am- 0.0-----29.91+0.03 79.3- 78.1---
2026-09-06 07:45 am- 0.0-----29.91- 78.3- 77.9---
2026-09-06 07:30 am- 0.0-----29.91- 77.7- 77.4---
2026-09-06 07:15 am- 0.0-----29.91- 77.5- 77.2---
2026-09-06 07:00 am- 0.0-----29.91+0.06 77.2- 76.8---
2026-09-06 06:45 am- 0.0-----29.88- 77.2- 76.8---
2026-09-06 06:30 am- 0.0-----29.91- 77.2- 76.8---
2026-09-06 06:15 am- 0.0-----29.88- 76.8- 76.5---
2026-09-06 06:00 am- 0.0-----29.88+0.03 76.8- 76.5---
2026-09-06 05:45 am- 0.0-----29.88- 76.8- 76.5---
2026-09-06 05:30 am- 0.0-----29.88- 77.0- 76.6---
2026-09-06 05:15 am- 0.0-----29.88- 77.0- 76.6---
2026-09-06 05:00 am- 0.0-----29.88+0.03 77.2- 76.8---
2026-09-06 04:45 am- 0.0-----29.88- 77.4- 77.0---
2026-09-06 04:30 am- 0.0-----29.88- 77.2- 76.8---
2026-09-06 04:15 am- 0.0-----29.85- 77.4- 77.0---
2026-09-06 04:00 am- 0.0-----29.85-0.03 77.5- 77.2---
2026-09-06 03:45 am- 0.0-----29.85- 77.7- 77.4---
2026-09-06 03:30 am- 0.0-----29.85- 77.5- 77.0---
2026-09-06 03:15 am- 0.0-----29.85- 77.4- 77.0---
2026-09-06 03:00 am- 0.0-----29.85-0.03 77.2- 76.8---
2026-09-06 02:45 am- 0.0-----29.85- 77.2- 76.8---
2026-09-06 02:30 am- 0.0-----29.85- 77.2- 76.8---
2026-09-06 02:15 am- 0.0-----29.85- 77.2- 76.8---
2026-09-06 02:00 am- 0.0-----29.85-0.03 77.2- 76.8---
2026-09-06 01:45 am- 0.0-----29.85- 77.2- 76.8---
2026-09-06 01:30 am- 0.0-----29.85- 77.2- 76.8---
2026-09-06 01:15 am- 0.0-----29.85- 77.4- 77.0---
2026-09-06 01:00 am- 0.0-----29.88+0.00 77.4- 76.8---
2026-09-06 12:45 am- 0.0-----29.88- 77.5- 77.0---
2026-09-06 12:30 am- 0.0-----29.88- 77.9- 77.4---
2026-09-06 12:15 am- 0.0-----29.88- 78.1- 77.5---
2026-09-06 12:00 am- 0.0-----29.88+0.03 77.9- 77.4---
2026-09-05 11:45 pm- 0.0-----29.88- 77.9- 77.4---
2026-09-05 11:30 pm- 0.0-----29.88- 78.1- 77.2---
2026-09-05 11:15 pm- 0.0-----29.88- 78.3- 77.4---
2026-09-05 11:00 pm- 0.0-----29.88+0.00 78.3- 77.4---
2026-09-05 10:45 pm- 0.0-----29.88- 78.4- 77.0---
2026-09-05 10:30 pm- 0.0-----29.88- 78.8- 76.6---
2026-09-05 10:15 pm- 0.0-----29.88- 79.5- 77.0---
2026-09-05 10:00 pm- 0.0-----29.88+0.03 80.4- 76.6---
2026-09-05 09:45 pm- 0.0-----29.88- 81.1- 76.3---
2026-09-05 09:30 pm- 0.0-----29.88- 81.9- 76.3---
2026-09-05 09:15 pm- 0.0-----29.88- 82.2- 76.3---
2026-09-05 09:00 pm- 0.0-----29.85+0.00 82.0- 76.5---
2026-09-05 08:45 pm- 0.0-----29.88- 81.5- 76.6---
2026-09-05 08:30 pm- 0.0-----29.88- 81.1- 76.6---
2026-09-05 08:15 pm- 0.0-----29.88- 81.5- 76.3---
2026-09-05 08:00 pm- 0.0-----29.88+0.00 81.9- 75.9---
2026-09-05 07:45 pm- 0.0-----29.88- 82.0- 76.1---
2026-09-05 07:30 pm- 0.0-----29.85- 82.8- 75.7---
2026-09-05 07:15 pm- 0.0-----29.85- 83.3- 75.9---
2026-09-05 07:00 pm- 0.0-----29.85-0.03 83.7- 76.3---
2026-09-05 06:45 pm- 0.0-----29.85- 84.2- 76.5---
2026-09-05 06:30 pm- 0.0-----29.85- 84.6- 76.5---
2026-09-05 06:15 pmSSW 1.0-----29.85- 84.9- 76.3---
2026-09-05 06:00 pm- 0.0-----29.85-0.06 85.3- 76.3---
2026-09-05 05:45 pmSSE 1.0-----29.85- 86.2- 76.3---
2026-09-05 05:30 pm- 0.0-----29.88- 86.9- 76.3---
2026-09-05 05:15 pm SW 1.0-----29.88- 87.6- 76.1---
2026-09-05 05:00 pm SW 1.0-----29.88-0.03 87.8- 75.7---
2026-09-05 04:45 pm S 1.0-----29.88- 87.3- 76.6---
2026-09-05 04:30 pm- 0.0-----29.88- 87.8- 76.6---
2026-09-05 04:15 pm- 0.0-----29.88- 86.9- 76.3---
2026-09-05 04:00 pm- 0.0-----29.88-0.06 85.3- 75.0---
2026-09-05 03:45 pm N 1.0-----29.88- 82.9- 75.2---
2026-09-05 03:30 pmNNE 1.9-----29.88- 81.7- 75.7---
2026-09-05 03:15 pmNNE 2.9-----29.88- 82.8- 76.8---
2026-09-05 03:00 pmNNW 1.9-----29.91-0.03 85.6- 76.6---
2026-09-05 02:45 pmSSW 1.0-----29.91- 86.9- 76.6---
2026-09-05 02:30 pmSSW 1.9-----29.91- 88.3- 77.2---
2026-09-05 02:15 pmSSW 1.9-----29.91- 90.0- 77.4---
2026-09-05 02:00 pm S 1.9-----29.91-0.03 89.8- 78.1---
2026-09-05 01:45 pmSSE 1.9-----29.91- 89.1- 77.0---
2026-09-05 01:30 pm SW 1.0-----29.91- 89.8- 76.8---
2026-09-05 01:15 pm S 1.0-----29.91- 88.3- 75.9---
2026-09-05 01:00 pmWNW 1.0-----29.94+0.00 89.8- 75.9---